Miscellaneous Local Product
Issued by NWS Hastings, NE

Home | Current Version | Previous Version | Text Only | Print | Product List | Glossary On
Versions: 1 2 3 4 5 6 7 8 9 10 11 12 13 14 15 16 17 18 19 20 21 22 23 24 25 26 27 28 29 30 31 32 33 34 35 36 37 38 39 40 41 42 43 44 45 46 47 48 49 50
000
AXUS43 KGID 311502
MISGRI

GID CWA HOURLY WEATHER ROUNDUP
NATIONAL WEATHER SERVICE HASTINGS NE
1000 AM CDT TUE MAY 31 2016

NOTE: "FAIR" INDICATES FEW OR NO CLOUDS BELOW 12,000 FEET WITH NO
SIGNIFICANT WEATHER AND/OR OBSTRUCTIONS TO VISIBILITY.

...SOUTH CENTRAL NEBRASKA...

CITY           SKY/WX    TMP DP  RH WIND       PRES   REMARKS
GRAND ISLAND   MOSUNNY   64  50  60 N15       30.03R
HASTINGS       MOSUNNY   62  52  69 N15       30.02R
KEARNEY        CLOUDY    63  48  59 N15G21    30.04R
ORD            MOSUNNY   64  45  49 N17       30.02R
YORK           CLOUDY    63  57  82 N9G16     30.00R
AURORA         CLOUDY    62  56  81 N10       30.00S
LEXINGTON      SUNNY     61  49  65 N9        30.06S
HOLDREGE       PTSUNNY   59  49  70 N14       30.04R
HEBRON         CLOUDY    64  60  86 NW9       29.97R

...NEBRASKA PANHANDLE...

CITY           SKY/WX    TMP DP  RH WIND       PRES   REMARKS
CHADRON        SUNNY     62  39  42 W16G24    30.07S
ALLIANCE       CLOUDY    56  43  61 NW10      30.10S
SCOTTSBLUFF    CLOUDY    53  43  68 NW5       30.13R
SIDNEY         CLOUDY    50  41  71 N7        30.15R

...WESTERN AND NORTH CENTRAL NEBRASKA...

CITY           SKY/WX    TMP DP  RH WIND       PRES   REMARKS
VALENTINE      MOSUNNY   60  40  47 W10       30.01S
AINSWORTH      CLOUDY    56  41  57 W6        30.03R
ONEILL         SUNNY     61  44  53 N18       30.00F
BROKEN BOW     MOSUNNY   61  46  57 N21       30.04R
IMPERIAL       CLOUDY    57  45  64 N13       30.12S
NORTH PLATTE   CLOUDY    57  43  59 NW9       30.10R
MCCOOK         SUNNY     61  48  62 N14       30.09R

...EASTERN NEBRASKA...

CITY           SKY/WX    TMP DP  RH WIND       PRES   REMARKS
NORFOLK        PTSUNNY   63  51  65 N14       29.98S
SO SIOUX CITY  CLOUDY    64  58  80 NW8       29.95R
TEKAMAH        CLOUDY    65  61  87 NW16      29.95S
COLUMBUS       MOSUNNY   63  50  63 NW12      30.00S
ALBION         MOSUNNY   62  49  63 N13G18    30.01R
OMAHA EPPLEY   CLOUDY    69  61  75 NW13      29.93R
OFFUTT AFB     PTSUNNY   71  61  70 NW16      29.92R
MILLARD        MOSUNNY   67  60  77 NW8       29.94R
LINCOLN        CLOUDY    68  59  73 N14       29.96R
NEBRASKA CITY  PTSUNNY   70  64  81 N10       29.93R
BEATRICE       CLOUDY    66  60  80 NW14      29.95S
FALLS CITY     LGT RAIN  73  62  68 SW6       29.93R

...NORTHERN KANSAS...

CITY           SKY/WX    TMP DP  RH WIND       PRES   REMARKS
GOODLAND       PTSUNNY   57  49  74 N13       30.11S
HILL CITY      MOSUNNY   64  54  69 N16       30.04S
NORTON         SUNNY     61  46  59 N14G20    30.05R
PHILLIPSBURG   SUNNY     63  54  72 N15       30.03S
SMITH CENTER   MOSUNNY   61  55  82 N13       30.01S
BELOIT         MOSUNNY   61  54  77 NW8       29.97S
HAYS           CLOUDY    64  55  72 N15       29.99S
RUSSELL        CLOUDY    64  60  87 NW13      29.97R
CONCORDIA      CLOUDY    65  60  84 VRB3      29.97R
SALINA         CLOUDY    66  62  87 N5        29.96S
TOPEKA         CLOUDY    70  62  76 W7        29.96R



USA.gov is the U.S. government's official web portal to all federal, state and local government web resources and services.